Regional Weather Roundup
Issued by NWS

Home | Current Version | Previous Version | Graphics & Text | Print | Product List | Glossary On
Versions: 1 2 3 4 5 6 7 8 9 10 11 12 13 14 15 16 17 18 19 20 21 22 23 24 25 26 27 28 29 30 31 32 33 34 35 36 37 38 39 40 41 42 43 44 45 46 47 48 49 50
000
ASUS43 KDTX 201601
RWRMI
MICHIGAN HOURLY REGIONAL WEATHER ROUNDUP
NATIONAL WEATHER SERVICE DETROIT/PONTIAC MI
1200 PM EDT WED AUG 20 2014

NOTE: "FAIR" INDICATES FEW OR NO CLOUDS BELOW 12,000 FEET WITH NO
SIGNIFICANT WEATHER AND/OR OBSTRUCTION TO VISIBILITY.

MIZ047>049-052>055-059>063-066>070-074>076-081>083-201700-
SOUTHEAST LOWER MICHIGAN

CITY           SKY/WX    TMP DP  RH WIND       PRES   REMARKS
ADRIAN         SUNNY     78  66  66 NW9       29.89R
ALMA           PTSUNNY   75  66  74 SW8       29.86S
ANN ARBOR      PTSUNNY   75  67  76 VRB5      29.88R
BAD AXE        PTSUNNY   76  68  75 W6        29.85S
CARO           PTSUNNY   73  68  83 W3        29.85S
DETROIT CITY   PTSUNNY   75  68  78 SW7       29.86R
DETROIT        CLOUDY    74  68  81 SW6       29.87R
FLINT          PTSUNNY   73  67  81 W5        29.86R
GROSSE ILE     CLOUDY    73  68  83 CALM      29.86R
HILLSDALE      SUNNY     79  67  66 W8        29.90S
HOWELL         PTSUNNY   76  67  73 W10       29.88R

CITY           SKY/WX    TMP DP  RH WIND       PRES   REMARKS
JACKSON        MOSUNNY   77  66  68 VRB6      29.88S
LAMBERTVILLE   SUNNY     77  68  73 SW3       29.89S
LANSING        MOSUNNY   76  65  68 W7        29.87S
LAPEER         CLOUDY    73  67  82 W6        29.86R
MASON          MOSUNNY   75  65  70 W7        29.88R
MONROE         CLOUDY    73  68  83 W6        29.86S HAZE
MT. CLEMENS    CLOUDY    75  67  76 W7        29.84R
PONTIAC        PTSUNNY   74  66  76 SW8       29.86S
PORT HOPE        N/A     72  66  81 N7        29.83R
PORT HURON     CLOUDY    73  70  88 S5        29.85S
TRI CITIES     PTSUNNY   76  66  71 S7        29.85S
TROY           CLOUDY    75  67  78 SW5       29.87S
SAGINAW HB     MOSUNNY   73  68  83 W3        29.85S
$$
MIZ043>046-050>051-056>058-064>065-071>073-077>080-201700-
SOUTHWEST LOWER MICHIGAN

CITY           SKY/WX    TMP DP  RH WIND       PRES   REMARKS
BATTLE CREEK   PTSUNNY   78  63  59 W14       29.90R
BENTON HARBOR  SUNNY     75  66  73 W8        29.89R
BIG RAPIDS     PTSUNNY   75  64  70 W6        29.86R
COLDWATER      PTSUNNY   79  66  65 W9        29.90R
FREMONT        PTSUNNY   74  63  69 W5        29.87R
HOLLAND        SUNNY     76  66  71 W10       29.90R
GRAND RAPIDS   PTSUNNY   78  66  66 W10       29.87R
IONIA          PTSUNNY   76  64  64 W12       29.86R
KALAMAZOO      PTSUNNY   78  61  55 W9        29.89R
LUDINGTON      SUNNY     72  64  76 W7        29.87R
MARSHALL       PTSUNNY   75  65  71 W9        29.88S
MOUNT PLEASANT CLOUDY    77  65  66 W9        29.84S
MUSKEGON       MOSUNNY   74  65  73 W7        29.88R
SOUTH HAVEN    SUNNY     76  66  71 W6        29.89S
$$
MIZ016>042-201700-
NORTHERN LOWER MICHIGAN

CITY           SKY/WX    TMP DP  RH WIND       PRES   REMARKS
ALPENA         CLOUDY    72  64  76 SW6       29.82S
BEAVER ISLAND  CLOUDY    63  62  97 NW6       29.84R
BELLAIRE       CLOUDY    69  60  75 W3        29.84R
CADILLAC       DRIZZLE   67  64  88 W5        29.86S
CHARLEVOIX     CLOUDY    65  65 100 SW8       29.86R
FRANKFORT      CLOUDY    67  61  81 W6        29.86R
GAYLORD        CLOUDY    66  61  84 SW8       29.86R
GRAYLING       CLOUDY    69  65  86 W3        29.87R
HARBOR SPRINGS CLOUDY    66  63  90 SW5       29.84R
HOUGHTON LAKE  PTSUNNY   70  62  76 W5        29.86R
MANISTEE       CLOUDY    66  61  82 NW7       29.87R
OSCODA         PTSUNNY   76  65  70 SW8       29.82S
PELLSTON       CLOUDY    66  64  93 SW5       29.84R FOG
TRAVERSE CITY  CLOUDY    68  61  78 VRB3      29.84R
$$
MIZ007>008-015-201700-
EASTERN UPPER MICHIGAN

CITY           SKY/WX    TMP DP  RH WIND       PRES   REMARKS
KINROSS        CLOUDY    64  63  94 CALM      29.83S
MACKINAC ISLAN CLOUDY    63  63 100 CALM      29.83R FOG
NEWBERRY       CLOUDY    61  61  99 NW6       29.84R
S. S. MARIE    CLOUDY    65  62  90 E3        29.82S FOG
$$
MIZ004>006-011>014-085-201700-
CENTRAL UPPER MICHIGAN

CITY           SKY/WX    TMP DP  RH WIND       PRES   REMARKS
MANISTIQUE     DRIZZLE   61  61  98 N6        29.84R
ESCANABA       CLOUDY    63  57  82 CALM      29.86R
MENOMINEE      PTSUNNY   66  59  77 N7        29.86R
$$
MIZ001>003-009>011-084-201700-
WESTERN UPPER MICHIGAN

CITY           SKY/WX    TMP DP  RH WIND       PRES   REMARKS
IRON MOUNTAIN  CLOUDY    67  58  72 NW10      29.87R
HOUGHTON       FOG       59  58  96 NW12      29.87R VSB 3/4
COPPER HARBOR    N/A     53  52  96 N10       29.85R
IRONWOOD       CLOUDY    63  61  94 N3        29.88S
$$

ABBREVIATIONS USED IN REMARKS
   TC - TEMPERATURE IN CELSIUS
  WCI - WIND CHILL INDEX
   HX - HEAT INDEX
  VSB - VISIBILITY



USA.gov is the U.S. government's official web portal to all federal, state and local government web resources and services.